Regional Weather Roundup
Issued by NWS Charleston, SC

Current Version | Previous Version | Text Only | Print | Product List | Glossary Off
Versions: 1 2 3 4 5 6 7 8 9 10 11 12 13 14 15 16 17 18 19 20 21 22 23 24 25 26 27 28 29 30 31 32 33 34 35 36 37 38 39 40 41 42 43 44 45 46 47 48 49 50

000
ASUS42 KCHS 302228
RWRCHS

REGIONAL WEATHER ROUNDUP
NATIONAL WEATHER SERVICE CHARLESTON SC
600 PM EDT SAT APR 30 2016

NOTE: "FAIR" INDICATES FEW OR NO CLOUDS BELOW 12,000 FEET WITH NO
SIGNIFICANT WEATHER AND/OR OBSTRUCTIONS TO VISIBILITY.

NOT ALL STATIONS ARE QUALITY CONTROLLED. USE DATA WITH CAUTION...
ESPECIALLY DEWPOINT OBSERVATIONS.

SCZ027-030-031-034>040-042>050-302300-
...SOUTHEAST SOUTH CAROLINA...

CITY           SKY/WX    TMP DP  RH WIND       PRES   REMARKS
N CHARLESTON   PTSUNNY   79  69  71 S14       30.02R
WATERFRONT PRK   N/A     76  72  87 E10       30.00F
MOUNT PLEASANT FAIR      77  70  78 E7        30.03S
JOHNS ISLAND   FAIR      77  72  83 E9G15     30.02S
PINOPOLIS        N/A     86  68  54 S5        29.92F
MONCKS CORNER  FAIR      75  64  69 SE7       30.02R
SUMMERVILLE    FAIR      81  68  65 SE7       30.03R
BEAUFORT MCAS  MOSUNNY   81  69  67 SE6G16    30.00S
BEAUFORT ARPT  FAIR      79  66  65 SE9G16    30.00R
HILTON HEAD IS MOSUNNY   77  72  83 SE7       30.01F
WALTERBORO     CLOUDY    82  64  54 SE10      30.01S
ALLENDALE      FAIR      82  57  42 SE14      29.98R

...SOUTHERN MIDLANDS AND PEE DEE...

CITY           SKY/WX    TMP DP  RH WIND       PRES   REMARKS
GEORGETOWN     CLOUDY    70  64  83 NE14      30.07R
KINGSTREE      FAIR      77  64  65 SE15      30.03R
ORANGEBURG     MOSUNNY   84  62  47 S15       29.99R
BARNWELL       FAIR      86  59  39 SE17      29.98R
AIKEN          FAIR      82  61  47 SE8G17    30.00R
MANNING        NOT AVBL
COLUMBIA       PTSUNNY   88  60  38 S13G20    29.96R
SUMTER         PTSUNNY   83  65  53 SE9       29.97R
FLORENCE       PTSUNNY   80  65  59 SE13G21   30.03S
MYRTLE BEACH   PTSUNNY   72  59  64 E16       30.09S
N MYRTLE BEACH CLOUDY    72  62  71 E12       30.08S

$$

GAZ063-065-086>088-099>101-113>116-118-119-134>141-150-302300-
...SOUTHEAST GEORGIA...

CITY           SKY/WX    TMP DP  RH WIND       PRES   REMARKS
SAVANNAH ARPT  CLOUDY    82  67  60 SE16      29.98S
HUNTER AAF     CLOUDY    79  72  78 SE12      29.96S
FORT STEWART   CLOUDY    81  68  65 SE10      29.96R
STATESBORO     SUNNY     87  68  51 SE12      29.97R HX  90
SYLVANIA       PTCLDY    85  65  51 SE9       29.99R
CLAXTON        FAIR      84  68  58 E7        29.96R

...CSRA...CENTRAL AND FAR SOUTHEAST GEORGIA...

CITY           SKY/WX    TMP DP  RH WIND       PRES   REMARKS
THOMSON        CLOUDY    87  64  46 SE3       29.99R
AUGUSTA-BUSH   MOSUNNY   85  61  44 SE9       29.94R
AUGUSTA-DANIEL CLOUDY    86  62  44 SE9       29.96R
SWAINSBORO     FAIR      86  54  32 SE8       29.95F
VIDALIA        CLOUDY    86  55  35 SE10G16   29.94F
EASTMAN        MOCLDY    70  70 100 NW3       29.97S
HAZLEHURST     FAIR      87  54  31 SE5       29.92F
ALMA           CLOUDY    87  58  37 SE10      29.92R
WAYCROSS       CLOUDY    84  66  54 SE13G18   29.92S
JESUP          FAIR      84  70  61 SE9       29.95F
BAXLEY         FAIR      86  63  45 SE7       29.94R
BRUNSWICK      CLOUDY    84  72  65 SE9       29.98S
SAINT SIMONS   MOSUNNY   78  72  81 E13       29.97R

$$

SCZ027-028-034-036>038-045-046-048>050-GAZ119-141-302300-
...LAKE AND SUPPLEMENTAL COASTAL OBSERVATIONS...

STATION/POSITION TIME  TEMP    WIND        PRES    WAVE   SWELL
                       AIR SEA DIR/SP/G            HT/PER HT/PER/DIR
                 (UTC) (F)     (DEG/KT/KT) (MB)    (FT/S) (FT/S/D)
WINYAH BAY       2145   69      60/ 16     1017.0S
LAKE MURRAY      2100   83     150/ 12/ 17 1013.5F
ACE BASIN NERRS  2100   81     140/  3     1016.0F
FORT PULASKI     2200   76 73              1016.1R
SAPELO ISLAND    2200   80     100/  8     1015.0S

$$

ANZ835-935-AMZ111-154-330-350-352-354-370-450-454-472-302300-
...C-MAN AND BUOY OBSERVATIONS...

STATION/POSITION TIME  TEMP    WIND        PRES    WAVE   SWELL
                       AIR SEA DIR/SP/G            HT/PER HT/PER/DIR
                 (UTC) (F)     (DEG/KT/KT) (MB)    (FT/S) (FT/S/D)
BUOY 41004       2150   75 74  100/ 12/ 14 1016.3R   3/10   2/10
BUOY 41008       NOT AVBL
FOLLY BEACH CMAN 2200   74     100/ 10/ 11 1016.9S
CAPERS NEARSHORE 2208   74 72  100/  8/ 10 1016.8R
FRIPP NEARSHORE  2208   75 75  100/  8/  8 1015.5R


STATION/POSITION TIME  TEMP    WIND        PRES    WAVE   SWELL
                       AIR SEA DIR/SP/G            HT/PER HT/PER/DIR
                 (UTC) (F)     (DEG/KT/KT) (MB)    (FT/S) (FT/S/D)
5E ST. MARYS GA  2121      75                N/A     2/10
FRYING PAN BUOY  2200   69 70   50/ 17/ 21 1018.4R
BUOY 41025       2150   59 73   30/ 19/ 21 1020.2F   5/ 9   3/ 60/ 9
CAPE LOOKOUT NC  2200   62      50/ 17/ 18 1020.2R
BUOY 41002       2150   71      70/ 10/ 12 1018.1R   5/10   5/ 30/10
BUOY 41010       2120   77 78  140/  4/  6 1015.9R
ST AUGUSTINE FL  2200   75 75  150/ 12/ 13 1015.2S


$$



USA.gov is the U.S. government's official web portal to all federal, state and local government web resources and services.